Saint Francis, KS

6:44 AM CST on February 27, 2017 (GMT -0600)
Cheyenne County Municipal

Weather History for KSYF - June, 2014

Change the Weather History Date:

Tuesday, June 10, 2014

  Actual Average Record
Temperature  
Mean Temperature 63 °F -  
Max Temperature 85 °F 81 °F 106 °F (2013)
Min Temperature 42 °F 54 °F 42 °F (2014)
Degree Days  
Heating Degree Days 2    
Growing Degree Days 13 (Base 50)    
Moisture  
Dew Point 47 °F    
Average Humidity 65    
Maximum Humidity 93    
Minimum Humidity 21    
Precipitation  
Precipitation 0.00 in - - ()
Sea Level Pressure  
Sea Level Pressure 29.92 in    
Wind  
Wind Speed 7 mph (South)    
Max Wind Speed 16 mph    
Max Gust Speed 22 mph    
Visibility 9 miles    
Events      
Averages and records for this station are not official NWS values.
T = Trace of Precipitation, MM = Missing Value Source: NWS Daily Summary

Daily Weather History Graph

Daily Weather History Graph

Search for Another Location

Airport or City:

Trip Planner

Search our weather history database for the weather conditions in past years. The results will help you decide how hot, cold, wet, or windy it might be!

Date:

Astronomy

Jun. 10, 2014 Rise Set
Actual Time 6:18 AM CDT 9:14 PM CDT
Civil Twilight 5:46 AM CDT 9:47 PM CDT
Nautical Twilight 5:05 AM CDT 10:28 PM CDT
Astronomical Twilight 4:17 AM CDT 11:16 PM CDT
Moon 6:42 PM CDT (6/10) 4:25 AM CDT (6/10)
Length of Visible Light 16h 01m
Length of Day
14h 56m
Waxing Gibbous, 92% of the Moon is Illuminated
Jun 10
Waxing Gibbous
Jun 12
Full
Jun 19
Last Quarter
Jun 27
New
Jul 5
First Quarter

Hourly Weather History & Observations

Time (CDT) Temp. Windchill Dew Point Humidity Pressure Visibility Wind Dir Wind Speed Gust Speed Precip Events Conditions
12:15 AM 48.2 °F - 45.5 °F 90% 30.03 in 10.0 mi ESE 4.6 mph - N/A   Clear
12:35 AM 47.5 °F - 45.1 °F 92% 30.03 in 10.0 mi SE 4.6 mph - N/A   Clear
12:55 AM 45.5 °F 44.2 °F 42.8 °F 90% 30.03 in 7.0 mi West 3.5 mph - N/A   Clear
1:15 AM 46.0 °F 43.9 °F 43.9 °F 92% 30.03 in 5.0 mi WSW 4.6 mph - N/A   Clear
1:35 AM 45.9 °F 42.9 °F 43.7 °F 92% 30.04 in 5.0 mi WSW 5.8 mph - N/A   Clear
1:55 AM 46.4 °F 43.5 °F 44.2 °F 92% 30.04 in 7.0 mi WSW 5.8 mph - N/A   Clear
2:15 AM 46.0 °F 44.8 °F 44.1 °F 93% 30.04 in 7.0 mi SW 3.5 mph - N/A   Clear
2:35 AM 45.7 °F 43.4 °F 43.7 °F 93% 30.03 in 7.0 mi SW 4.6 mph - N/A   Clear
2:55 AM 45.0 °F 41.8 °F 43.0 °F 93% 30.03 in 7.0 mi WSW 5.8 mph - N/A   Clear
3:15 AM 45.5 °F 42.5 °F 43.3 °F 92% 30.02 in 5.0 mi SW 5.8 mph - N/A   Clear
3:35 AM 45.1 °F 42.8 °F 43.2 °F 93% 30.02 in 7.0 mi SW 4.6 mph - N/A   Clear
4:15 AM 45.1 °F 41.4 °F 43.3 °F 93% 30.00 in 7.0 mi SSW 6.9 mph - N/A   Clear
4:35 AM 45.0 °F 41.8 °F 43.0 °F 93% 30.00 in 7.0 mi SW 5.8 mph - N/A   Clear
4:55 AM 43.9 °F 40.5 °F 41.9 °F 93% 30.00 in 7.0 mi SW 5.8 mph - N/A   Clear
5:15 AM 43.0 °F 40.3 °F 41.0 °F 93% 30.00 in 7.0 mi WSW 4.6 mph - N/A   Clear
5:35 AM 43.2 °F 39.7 °F 41.4 °F 93% 30.00 in 5.0 mi SW 5.8 mph - N/A   Clear
5:55 AM 42.8 °F 39.3 °F 41.0 °F 93% 29.99 in 5.0 mi SSW 5.8 mph - N/A   Clear
6:15 AM 43.0 °F 39.5 °F 41.2 °F 93% 29.99 in 5.0 mi SW 5.8 mph - N/A   Clear
6:35 AM 42.3 °F 38.6 °F 40.5 °F 93% 29.99 in 5.0 mi SSW 5.8 mph - N/A   Clear
6:55 AM 44.4 °F 42.0 °F 42.6 °F 93% 30.00 in 5.0 mi SSW 4.6 mph - N/A   Clear
7:15 AM 45.7 °F 44.4 °F 43.9 °F 93% 29.99 in 7.0 mi SSW 3.5 mph - N/A   Clear
7:35 AM 46.6 °F - 44.6 °F 93% 29.99 in 5.0 mi Calm Calm - N/A   Clear
7:55 AM 48.0 °F - 46.0 °F 93% 29.99 in 7.0 mi WSW 5.8 mph - N/A   Clear
8:15 AM 50.2 °F - 48.2 °F 93% 29.99 in 7.0 mi Calm Calm - N/A   Clear
8:35 AM 54.0 °F - 51.1 °F 90% 29.99 in 10.0 mi SW 3.5 mph - N/A   Clear
8:55 AM 57.4 °F - 50.7 °F 78% 29.98 in 10.0 mi SW 10.4 mph - N/A   Clear
9:15 AM 59.4 °F - 49.6 °F 70% 29.98 in 10.0 mi SSW 13.8 mph - N/A   Clear
9:35 AM 61.3 °F - 49.5 °F 65% 29.97 in 10.0 mi SSW 11.5 mph - N/A   Clear
9:55 AM 63.0 °F - 48.6 °F 59% 29.96 in 10.0 mi South 13.8 mph - N/A   Clear
10:15 AM 64.6 °F - 48.2 °F 55% 29.96 in 10.0 mi SSW 12.7 mph - N/A   Clear
10:35 AM 65.3 °F - 48.7 °F 55% 29.95 in 10.0 mi SSW 12.7 mph - N/A   Clear
10:55 AM 66.9 °F - 48.9 °F 52% 29.95 in 10.0 mi SW 10.4 mph - N/A   Clear
11:15 AM 68.0 °F - 48.6 °F 50% 29.95 in 10.0 mi South 8.1 mph - N/A   Clear
11:35 AM 69.1 °F - 48.9 °F 49% 29.94 in 10.0 mi South 5.8 mph - N/A   Clear
11:55 AM 71.1 °F - 47.8 °F 44% 29.93 in 10.0 mi SSW 5.8 mph - N/A   Clear
12:15 PM 72.1 °F - 48.6 °F 43% 29.93 in 10.0 mi South 8.1 mph - N/A   Clear
12:55 PM 74.3 °F - 49.3 °F 41% 29.92 in 10.0 mi SSE 5.8 mph - N/A   Clear
1:15 PM 75.4 °F - 50.0 °F 41% 29.91 in 10.0 mi South 6.9 mph - N/A   Clear
1:35 PM 77.2 °F - 49.8 °F 38% 29.90 in 10.0 mi SSE 8.1 mph - N/A   Clear
2:15 PM 79.2 °F - 50.9 °F 37% 29.89 in 10.0 mi SSE 10.4 mph 19.6 mph N/A   Clear
2:35 PM 79.7 °F - 50.0 °F 35% 29.88 in 10.0 mi SSE 11.5 mph 17.3 mph N/A   Clear
2:55 PM 81.0 °F - 47.5 °F 31% 29.87 in 10.0 mi SSE 12.7 mph 17.3 mph N/A   Clear
3:35 PM 83.3 °F - 46.8 °F 28% 29.86 in 10.0 mi South 13.8 mph 19.6 mph N/A   Clear
3:55 PM 83.7 °F - 42.4 °F 23% 29.86 in 10.0 mi South 11.5 mph 18.4 mph N/A   Clear
4:15 PM 84.0 °F - 40.6 °F 22% 29.85 in 7.0 mi SSE 9.2 mph 17.3 mph N/A   Clear
4:55 PM 84.6 °F - 41.4 °F 22% 29.83 in 10.0 mi South 12.7 mph - N/A   Clear
5:15 PM 84.4 °F - 40.1 °F 21% 29.83 in 10.0 mi South 9.2 mph 18.4 mph N/A   Clear
5:35 PM 84.6 °F - 42.8 °F 23% 29.83 in 10.0 mi SSE 10.4 mph 17.3 mph N/A   Clear
5:55 PM 83.1 °F - 47.8 °F 29% 29.82 in 10.0 mi SSE 16.1 mph 20.7 mph N/A   Clear
6:15 PM 82.8 °F - 49.8 °F 32% 29.82 in 10.0 mi SSE 13.8 mph - N/A   Clear
6:55 PM 81.1 °F - 50.0 °F 34% 29.81 in 10.0 mi SE 16.1 mph - N/A   Clear
7:15 PM 80.2 °F - 49.3 °F 34% 29.81 in 10.0 mi SE 16.1 mph 21.9 mph N/A   Clear
7:35 PM 79.2 °F - 49.5 °F 35% 29.81 in 10.0 mi SSE 15.0 mph 20.7 mph N/A   Clear
7:55 PM 77.4 °F - 50.4 °F 39% 29.81 in 10.0 mi SSE 13.8 mph - N/A   Clear
8:15 PM 74.7 °F - 51.8 °F 45% 29.81 in 10.0 mi SE 12.7 mph - N/A   Clear
8:35 PM 71.8 °F - 53.4 °F 52% 29.81 in 10.0 mi SE 11.5 mph - N/A   Clear
8:55 PM 71.1 °F - 53.6 °F 54% 29.81 in 10.0 mi SSE 13.8 mph - N/A   Clear
9:15 PM 68.7 °F - 54.5 °F 60% 29.82 in 10.0 mi SSE 12.7 mph - N/A   Clear
9:35 PM 66.0 °F - 55.6 °F 69% 29.82 in 10.0 mi SE 10.4 mph - N/A   Clear
9:55 PM 64.9 °F - 54.9 °F 70% 29.82 in 10.0 mi SSE 13.8 mph - N/A   Clear
10:15 PM 64.6 °F - 54.5 °F 70% 29.82 in 10.0 mi SSE 12.7 mph - N/A   Clear
10:35 PM 63.9 °F - 54.0 °F 70% 29.83 in 10.0 mi SSE 10.4 mph - N/A   Clear
10:55 PM 62.4 °F - 54.0 °F 74% 29.84 in 10.0 mi SSE 10.4 mph - N/A   Clear
11:15 PM 61.5 °F - 54.0 °F 76% 29.84 in 10.0 mi SSE 4.6 mph - N/A   Clear
11:35 PM 61.5 °F - 53.6 °F 75% 29.84 in 10.0 mi Calm Calm - N/A   Clear
11:55 PM 62.6 °F - 52.7 °F 70% 29.85 in 10.0 mi Calm Calm - N/A   Clear